{"data":{"norad_id":68202,"intl_designator":"2026-052E","name":"2026-052E","alt_names":[],"object_type":"PAYLOAD","status":"ACTIVE","operator":null,"country":"PRC","launch_date":"2026-03-16","launch_site_code":"JSC","launch_vehicle":null,"mission":null,"orbit_class":"UNKNOWN","rcs_meters":null,"size_class":null,"mass_kg":null,"dimensions":null,"purposes":[],"wikipedia_slug":null,"has_3d_model":false,"image_url":null,"decayed_at":null,"tle_current":{"epoch":"2026-05-25T03:54:22.959072Z","epoch_age_seconds":58304,"freshness":"FRESH","line1":"1 68202U 26052E   26145.16276573  .00005852  00000+0  35275-3 0  9992","line2":"2 68202  97.5326 220.3454 0012090  38.4090 321.7998 15.11091910 10578","mean_motion":15.1109191,"eccentricity":0.001209,"inclination_deg":97.5326,"raan_deg":220.3454,"arg_perigee_deg":38.409,"mean_anomaly_deg":321.7998,"bstar":0.00035275,"rev_number":1057,"period_min":95.295328528362,"perigee_km":524.51334452742,"apogee_km":541.22415643208,"semimajor_km":6911.0057504797,"source":"CELESTRAK","updated_at":"2026-05-25T13:38:07.643181Z"}}}